Kami akan memamerkan foto-foto karya Yoshinaga Touko 📸 dari Mito Kana 💁♀️ dan foto-foto karya Mito Kana 🙎♀️ dari Yoshinaga Touko 🙎♀️. Silakan mampir. *Untuk menghormati teta...
Kolaborasi terakhir kami 😭
📸 Pameran Foto akan diadakan 📸 Pameran Foto "Sore Hari Bersama Dua Wanita Dewasa" Tanggal & Waktu 12 September (Sabtu) 16:00-18:30 13 September (Minggu) 13:00-15:00 Foto oleh: Yo...
#Camilan hari ini #Alat peraga hari ini
Kolaborasi 😉
#KameraHariIni
✨Dirilis✨
Saya ingin cetakan ukuran L...
Dimulai hari ini! Silakan datang dan lihat. [Pameran Foto] 🖼️biishobisho2026🖼️ 23/5 (Sab) 15:00~17:00 24 (Ming) 11:00~13:00 @ "Kasumitsukibo" 5-26-10 Daita, Setagaya-ku *Mohon jangan mengantre sebelum tempat dibuka. *Duduk-duduk di sekitar area juga akan mengganggu tetangga. Mohon jangan melakukannya.
| 923566.xyz MDON-042 | 5.22GB | 2024-05-22 | Unduh |
| 227766.xyz MDON-042 | 4.14GB | 2024-05-20 | Unduh |
| 330077.xyz MDON-042 | 5.22GB | 2024-04-30 | Unduh |
| 227766.xyz MDON-042 | 7.55GB | 2024-04-23 | Unduh |
| 335599.xyz MDON-042 | 4.14GB | 2024-04-22 | Unduh |
| 004433.xyz MDON-042 | 4.14GB | 2024-04-12 | Unduh |
| 004433.xyz MDON-042 | 4.03GB | 2024-03-28 | Unduh |
| 118877.xyz MDON-042 | 7.55GB | 2024-03-24 | Unduh |
| 118877.xyz MDON-042 | 4.03GB | 2024-03-17 | Unduh |
| 330077.xyz MDON-042 | 4.14GB | 2024-03-16 | Unduh |
| 116655.xyz MDON-042 | 5.22GB | 2024-03-14 | Unduh |
| 118877.xyz MDON-042 | 4.14GB | 2024-03-02 | Unduh |
| 335588.xyz MDON-042 | 5.22GB | 2024-02-17 | Unduh |
| 226655.xyz MDON-042 | 4.03GB | 2024-02-16 | Unduh |
| 330077.xyz MDON-042 | 7.55GB | 2024-02-16 | Unduh |
| 227766.xyz MDON-042 | 5.22GB | 2024-01-20 | Unduh |
| 226655.xyz MDON-042 | 7.55GB | 2024-01-12 | Unduh |
| 115544.xyz MDON-042 | 5.22GB | 2024-01-02 | Unduh |
| MDON-042 | 4.23GB | 2023-12-27 | Unduh |
| MDON-042 | 1.12GB | 2023-12-10 | Unduh |
| MDON-042 | 4.03GB | 2023-12-10 | Unduh |
| 335588.xyz MDON-042 | 4.03GB | 2023-12-08 | Unduh |
| 330077.xyz MDON-042 | 7.55GB | 2023-12-05 | Unduh |